Location: Middelsbur
(53.6609°N, 7.5020°E)
Time: 13:16:50
(UTC+00:00)

Cosmos 1844 Rocket - Pass Details

Date: 06 July 2020
Orbit: 826 x 843 km, 71.0° (Epoch: 06 August)

Event Time Altitude Azimuth Distance (km) Brightness Sun altitude
Rises 20:46:54 0° 324° (NW) 3,379 8.8 -5.6°
Reaches altitude 10° 20:49:29 10° 317° (NW) 2,441 7.0 -5.8°
Maximum altitude 20:54:34 38° 251° (WSW) 1,255 3.8 -6.3°
Drops below altitude 10° 20:59:38 10° 185° (S) 2,424 4.6 -6.7°
Enters shadow 21:01:34 - 179° (S) 3,116 5.1 -6.9°
